OBJECT Z, 57189

Orbit data source: Space-Track

You're viewing an Uncataloged Satellite

Recently launched and/or uncataloged satellites may have evolving metadata. Metadata may include but not limited to: Owner, Maufacturer, Bus, Motor, and Mission.

OBJECT Z, 57189 is a satellite in SSO that was launched on Tue, 27 Jun 2023 UTC via a SOYUZ-2-1B launch vehicle from the Vostochny Cosmodrome (VOSTO). Unknown objects in Earth's orbit typically refer to objects detected orbiting the Earth but have not yet been identified or cataloged. These objects could be anything from previously untracked satellites, spent rocket stages, debris from satellite collisions, or even natural meteoroids temporarily captured by Earth's gravity.

Loading next visibility...
Identifier
57189, 2023-091Z
Orbit
SSO
Country
Flag of TBDTBD
Related business
Flag of RUOOO VIZARD (RU)
Manufacturer
Sputniks
Mission
Operational Commercial Com/Met
Bus & Motor
CUBESAT 3U, Unknown motor
Mass
2.98 kg wet, 2.98 kg dry
Launch date (UTC)
2023-06-27 (2 years ago)
Launch vehicle
SOYUZ-2-1B
Launch site
Vostochny Cosmodrome (VOSTO)
Object type
Unknown
Shape & HBR
Box, 0.1 m
Radar Cross Section
0.035 m², Small (<0.1 m²)

Expand to show TLE details & history
Last TLE update: 8 hours ago

TLE from 8 hours ago
0 OBJECT Z
1 57189U 23091Z   25304.28240777  .00020096  00000-0  74733-3 0  9990
2 57189  97.5428   5.1703 0009331 156.8140 203.3522 15.27513278129644
Epoch: 2025-10-31T06:46Z
TLE epoch observation values (Epoch: 2025-10-31T06:46:40.031Z)
Latitude
0.00003°
Longitude
-136.32558°
Altitude
492.226 km
Speed
7.615 km/s
True Right ascension
00h 20m 40s
True Declination
0° 00' 00"
Sunlit
Object was in full shadow at epoch
Visualization orbit readout
Latitude
Unknown
Longitude
Unknown
Altitude
Unknown
Speed
Unknown
Apparent Right ascension
Unknown
Apparent Declination
Unknown
Sunlit
N/A
Visualization observer readout
Local Sidereal Time
10:25:33
Azimuth
Unknown
Elevation
Unknown
Doppler factor
Unknown
Orbital elements
Apogee altitude
486.61 km
Perigee altitude
473.811 km
Semi-major axis
6,858.348 km
Eccentricity
0.00093
Inclination
97.5428°
RAAN
5.1703°
Arg. of periapsis
156.814°
True anomaly
203.30986°
Mean anomaly
203.3522°
Eccentric anomaly
203.33103°
Mean motion
3.82132 °/min
Orbital period
94.21 mins
BSTAR
0.00074733
Loading maneuver chart data...
Computing Atmospheric mass density...
Loading historical data...
Loading historical data...
Loading historical data...
Loading historical data...
Loading historical data...
Loading historical data...
Loading historical data...

Documentation

Showing up to 5 results
|